Terminal Aerodrome Forecast
Issued by NWS

Home | Current Version | Previous Version | Text Only | Print | Product List | Glossary On
Versions: 1 2 3 4 5 6 7 8 9 10 11 12 13 14 15 16 17 18 19 20 21 22 23 24 25 26 27 28 29 30 31 32 33 34 35 36 37 38 39 40 41
000
FTAK31 PAFA 291720
TAFASC
TAF
PASC 291720Z 2918/3018 29008KT 2SM -SN BR VV006
     FM292100 27008KT 6SM -SHSN BR FEW005 OVC015
     FM300000 27008KT P6SM VCSH FEW005 BKN015 OVC025
     FM301000 25004KT 2SM -SHSN BR SCT007 OVC015=

USA.gov is the U.S. government's official web portal to all federal, state and local government web resources and services.